Wind_Speed
72 72 73 73 74 74 75 75 76 76 77 77 77 76 76 76 77 77 77 77 77 77 77 76 76 75 75 75 75 75 75 75 76 76 76 78 79 80 81 82 84 85 86 87 87 88 88 89 89 88 89 89 89 89 89 89 88 87 87 87 88 90 90 91 92 94 93 90 88 90 92 93 93 92 92 93 93 92 91 91 92 93 94 94 95 95 95 95
70 71 72 73 73 74 74 75 75 76 76 76 76 76 76 76 76 77 77 77 77 77 77 76 76 75 75 75 75 75 75 75 75 74 75 75 75 76 77 78 80 81 82 83 83 85 85 86 86 86 86 87 87 87 87 88 87 86 86 86 88 90 90 91 93 93 92 89 89 89 91 93 92 93 95 97 96 94 93 91 91 94 96 95 95 95 95 96
68 69 70 71 72 73 74 74 75 75 75 76 76 76 76 76 76 76 77 77 77 77 77 76 76 76 75 75 75 75 75 75 74 74 74 74 73 74 74 75 76 77 78 78 80 81 82 83 83 84 84 85 85 85 86 86 85 86 85 86 89 89 89 91 92 92 90 89 88 88 91 92 93 95 96 98 97 95 93 91 92 95 97 96 96 96 96 96
65 66 68 69 70 71 72 73 73 74 74 75 75 75 75 75 76 76 76 76 77 77 77 76 76 76 76 75 75 75 76 75 74 74 74 73 73 73 73 73 73 74 74 75 77 78 79 80 81 81 82 83 84 84 84 84 84 84 84 86 88 87 88 90 91 90 89 89 88 88 91 93 94 96 97 96 96 95 94 93 94 96 97 97 97 96 96 97
63 64 65 66 67 68 69 70 70 71 72 73 73 73 74 74 74 75 75 76 76 76 76 76 76 76 76 76 76 76 76 75 75 74 73 73 73 73 72 72 72 72 73 74 75 76 76 77 78 79 81 82 83 83 83 84 83 83 83 85 86 86 87 89 89 89 89 88 88 89 92 94 95 96 96 95 95 96 95 94 95 96 96 97 96 96 96 96
60 62 63 64 65 65 66 67 67 68 69 70 70 71 71 72 72 73 73 74 74 74 74 74 75 75 75 75 76 76 76 76 75 74 74 73 73 73 73 73 72 72 72 73 73 73 74 75 76 77 79 81 81 82 83 83 82 82 83 84 85 85 86 88 89 89 89 88 89 92 94 95 95 96 95 94 94 95 96 95 95 96 95 94 93 93 92 91
57 59 60 61 62 63 63 64 65 66 66 67 67 68 68 69 69 70 70 71 71 71 71 71 72 72 73 74 75 76 76 75 75 74 74 74 74 74 73 73 73 73 72 72 72 72 72 73 74 76 77 79 79 80 81 80 80 80 82 84 85 86 87 89 89 89 89 89 92 94 95 95 95 95 93 91 92 93 93 94 94 94 92 90 88 87 85 83
54 56 57 58 59 60 61 61 62 63 64 64 65 65 66 66 67 67 68 68 68 68 68 68 69 69 70 71 72 74 74 74 74 74 74 74 74 74 74 74 73 73 72 72 72 72 72 72 73 74 75 75 76 77 78 78 78 79 82 84 85 85 87 88 88 88 88 89 91 92 93 93 93 91 88 87 87 88 88 88 89 89 87 83 81 79 76 74
52 53 55 56 57 58 58 59 60 61 61 62 62 63 63 64 65 65 66 66 65 65 65 65 66 66 67 68 69 71 71 72 72 72 72 73 73 74 74 74 73 73 73 72 72 72 72 72 72 72 72 72 72 73 74 75 76 78 80 81 82 83 84 84 84 85 85 84 86 88 88 87 86 84 81 80 80 81 81 82 82 81 79 75 73 71 69 67
50 52 53 54 55 56 56 57 58 59 59 60 60 61 61 62 62 63 63 63 63 63 63 64 64 64 65 65 66 67 68 69 70 70 71 71 72 72 73 73 73 73 73 73 73 73 72 72 72 71 70 70 70 71 71 72 72 73 74 75 76 77 78 78 78 78 77 77 79 80 81 80 78 77 75 73 73 75 76 76 76 75 71 68 67 66 64 62
48 50 51 52 53 54 55 56 56 57 57 58 58 58 59 59 60 60 60 61 61 61 61 62 62 62 63 64 64 65 66 65 67 68 68 69 70 71 71 72 73 73 73 73 73 73 73 72 72 71 70 70 71 70 69 69 70 70 70 70 71 72 73 73 71 71 71 72 73 74 75 75 74 73 71 69 69 70 71 71 71 69 67 64 62 61 59 58
46 48 49 50 51 52 53 54 55 55 56 56 56 56 57 57 57 58 58 58 58 58 58 59 60 61 61 62 63 64 64 63 64 65 66 67 68 69 69 70 71 71 72 72 73 73 73 72 72 71 71 71 71 70 69 69 70 69 68 68 69 70 70 69 67 68 69 69 70 71 72 72 71 70 67 65 65 66 66 66 66 64 62 60 58 56 54 55
44 46 47 48 49 51 52 53 53 54 54 54 54 55 55 56 56 56 56 55 55 55 55 56 57 58 59 60 60 61 62 61 62 63 64 64 65 66 67 68 69 69 70 70 71 71 71 71 71 71 71 71 71 70 70 70 69 68 67 67 68 69 68 66 66 67 68 68 67 67 68 69 67 65 63 61 60 61 61 60 61 59 57 55 54 52 48 50
42 44 45 46 48 49 51 52 52 52 52 52 53 53 54 54 54 54 54 53 53 53 53 54 55 56 56 57 57 58 59 60 60 61 62 62 63 64 64 65 66 67 67 68 68 69 69 69 69 69 69 70 69 68 68 68 68 67 66 66 67 67 65 64 64 65 64 64 63 63 65 65 63 60 58 56 56 57 56 56 56 55 53 52 50 48 45 47
41 42 44 45 46 48 49 51 51 51 51 51 52 52 53 53 53 53 52 52 51 51 51 51 52 53 53 53 54 55 57 57 57 58 59 60 60 61 62 62 63 64 64 64 65 65 65 66 66 66 67 66 66 65 65 65 65 64 64 64 63 62 61 61 61 60 59 59 59 60 62 62 59 56 53 52 52 53 52 53 53 51 50 48 47 45 43 45
39 41 42 43 45 46 48 50 50 50 50 50 51 51 52 52 51 51 51 50 49 49 49 49 50 50 49 50 51 52 53 54 54 55 56 56 57 57 58 59 59 60 60 61 61 62 62 62 62 62 63 62 62 62 61 61 61 60 59 59 58 57 57 57 57 57 56 56 56 57 59 58 55 51 49 48 48 49 49 49 48 47 46 44 42 41 40 40
38 39 40 42 43 45 47 48 49 49 49 50 50 50 51 51 51 50 50 49 48 48 47 47 48 47 46 47 48 49 50 51 51 51 52 52 53 53 54 55 56 56 56 57 58 58 58 58 58 58 58 58 58 58 57 57 55 54 54 55 55 55 55 55 55 54 53 52 52 54 55 55 52 49 47 45 45 45 45 45 43 42 41 39 37 36 35 36
36 37 39 40 42 44 46 47 48 48 49 49 49 50 50 50 50 50 49 49 48 47 46 46 46 44 44 45 45 47 48 48 48 48 48 49 49 50 51 51 52 53 53 53 54 54 54 54 54 54 54 54 54 53 52 51 50 51 53 54 53 53 52 52 51 50 48 48 50 52 52 52 50 48 45 42 41 40 40 40 39 38 37 36 34 33 33 33
35 36 38 39 41 43 44 46 47 47 48 48 49 50 50 50 50 49 50 49 47 46 46 46 45 43 43 43 44 46 45 45 45 45 46 46 47 47 48 48 49 49 49 50 50 50 50 50 50 50 50 50 49 49 48 47 48 50 52 51 50 50 49 48 48 47 46 47 49 51 51 49 48 47 43 39 37 36 35 35 36 35 34 34 34 32 31 31
34 35 37 38 39 41 43 45 46 47 47 48 49 49 49 49 49 50 50 48 47 46 47 47 44 43 44 44 45 45 42 42 43 42 43 44 43 44 44 45 45 46 46 46 46 47 47 47 47 46 46 46 45 45 45 46 47 49 50 49 48 49 48 47 47 46 46 45 46 48 50 48 47 45 41 37 36 35 34 34 35 35 35 35 34 31 29 29
34 35 36 37 38 39 41 43 44 45 46 47 48 48 49 49 49 50 50 48 48 47 48 48 45 45 45 45 46 45 41 42 42 41 42 41 41 41 42 43 43 43 43 43 44 45 45 44 44 44 43 44 44 45 45 45 46 48 50 50 49 50 49 47 46 46 45 43 42 44 47 47 45 44 41 38 36 35 34 34 35 36 36 35 32 30 29 28
33 34 35 36 37 38 39 41 42 44 45 46 47 48 48 48 50 51 50 49 49 48 49 49 47 46 46 46 48 46 42 42 42 42 42 41 41 41 42 42 41 41 42 43 44 43 43 43 42 42 43 44 45 45 45 46 47 48 50 51 50 50 49 46 45 45 44 42 40 41 44 45 45 44 42 38 35 34 35 35 35 35 36 35 32 30 30 30
34 34 34 35 36 37 38 39 40 42 43 45 46 47 48 48 50 51 50 50 50 50 51 50 49 48 48 48 48 47 44 43 44 43 42 41 42 42 43 42 41 42 43 43 44 43 43 42 42 42 44 45 46 46 46 47 47 48 49 50 51 50 49 46 44 44 43 41 40 41 44 47 47 46 43 38 35 35 35 36 35 35 37 36 33 32 33 32
34 35 35 35 36 36 37 37 38 39 41 43 45 46 47 49 50 49 49 50 50 50 51 51 51 51 50 48 47 48 47 45 45 45 43 42 43 44 43 41 41 44 45 44 44 43 42 42 42 43 46 46 46 46 47 47 48 48 48 50 50 50 49 46 43 42 42 41 41 42 45 48 48 47 43 37 35 35 35 35 36 36 35 35 34 34 35 34
32 34 36 36 36 37 36 36 36 37 39 40 42 43 45 47 47 47 48 49 50 50 51 52 52 52 50 47 48 50 49 47 47 46 45 44 45 46 43 42 44 45 44 43 43 43 43 42 43 44 46 47 46 46 47 47 47 47 47 49 50 49 47 45 43 41 41 41 41 43 45 46 47 46 42 39 37 36 34 35 37 35 34 35 36 36 37 36
30 33 35 37 38 37 37 37 36 37 38 38 39 41 42 42 43 44 45 47 49 49 50 52 52 51 49 48 49 50 49 49 48 46 46 46 47 47 45 45 46 45 43 42 43 44 42 41 42 44 46 46 45 45 46 46 45 45 46 48 49 48 46 44 42 41 41 41 42 43 44 44 45 45 43 42 41 37 33 34 35 34 34 35 36 36 36 36
30 31 33 36 38 38 38 38 38 38 38 38 40 40 39 39 41 42 42 44 47 47 48 50 51 50 48 47 49 50 49 49 48 47 48 48 47 47 46 48 47 44 43 42 43 44 43 42 42 43 44 44 45 45 45 44 43 44 45 46 47 46 45 44 42 42 42 42 42 43 42 42 44 45 44 43 42 38 33 33 33 31 32 34 34 35 34 34
31 31 31 33 36 38 39 39 39 39 39 40 41 39 37 37 39 39 38 41 44 44 46 48 49 48 46 46 49 49 49 48 47 47 49 48 47 47 48 48 46 44 43 43 44 44 43 42 41 41 42 43 44 44 43 41 41 43 43 44 45 45 45 44 43 43 42 41 41 41 41 40 42 45 44 43 41 38 34 31 30 29 30 33 33 33 32 32
31 32 32 32 33 35 38 40 40 40 41 42 40 39 38 38 37 37 37 38 40 41 43 45 46 46 45 46 48 48 49 47 46 46 47 47 47 48 48 47 46 44 43 43 43 42 41 41 40 40 42 43 43 43 41 40 41 42 42 43 44 45 46 45 43 42 41 39 40 41 40 39 41 44 44 43 39 37 35 31 28 28 29 32 33 31 31 32
32 32 33 33 33 33 35 38 41 42 42 41 41 41 40 38 37 36 37 38 39 40 42 44 44 44 44 45 47 48 48 47 45 45 46 46 47 47 47 46 45 44 43 43 43 42 41 40 39 39 40 42 42 42 40 39 41 42 43 44 44 45 47 45 43 42 40 39 39 41 40 38 39 43 45 42 38 37 36 32 29 28 29 31 31 31 32 32
32 33 33 34 34 34 34 35 38 42 43 42 42 42 41 39 38 38 39 40 41 41 42 44 43 42 42 44 47 47 45 45 44 43 44 46 46 46 46 45 45 44 43 43 43 43 41 40 38 38 40 42 43 43 41 40 41 43 44 44 44 44 45 44 43 41 39 39 39 40 39 37 38 42 44 42 39 39 37 34 31 30 31 32 31 31 33 33
32 33 34 34 35 36 35 34 34 38 41 43 43 42 42 41 40 42 44 43 42 41 43 44 42 41 42 43 45 45 44 43 43 42 43 45 45 45 45 45 45 44 43 42 43 42 41 40 39 40 42 42 44 44 42 40 42 43 43 43 43 43 43 42 41 40 39 39 40 39 38 37 38 40 43 43 42 41 38 35 33 32 33 34 33 33 34 35
32 34 34 35 37 36 36 35 34 34 37 40 43 44 43 42 43 47 47 46 45 43 44 45 44 44 43 43 44 45 43 44 43 43 43 45 45 45 45 45 44 43 43 42 41 41 41 41 40 42 43 42 44 45 43 41 42 43 42 41 42 43 42 41 41 40 39 40 40 39 38 38 39 40 41 43 44 43 39 37 36 35 36 37 37 35 36 38
34 35 35 36 37 37 36 36 36 34 34 36 40 43 43 44 47 50 49 47 47 45 44 45 46 47 45 43 44 45 44 45 44 43 44 44 45 45 46 45 43 44 44 42 41 41 42 42 41 42 43 42 43 44 43 42 42 42 42 42 43 44 42 42 41 40 40 40 41 40 39 40 41 42 42 44 45 45 42 40 39 38 39 39 39 38 39 41
35 36 36 37 37 37 36 36 36 36 35 35 36 39 43 46 50 51 50 49 48 46 46 46 47 48 46 44 44 44 44 45 45 45 44 44 45 45 46 46 44 44 44 42 42 43 42 42 42 43 43 43 45 45 43 43 42 41 43 45 45 44 43 43 41 41 41 42 43 43 42 43 45 44 44 45 47 47 45 44 42 41 41 41 43 43 43 43
37 38 38 39 38 37 35 36 37 37 36 35 34 35 40 47 51 51 50 50 49 48 49 48 47 48 49 47 44 44 46 46 46 46 44 43 44 45 47 47 45 46 46 44 44 43 42 43 44 43 43 45 46 45 43 43 43 43 46 47 45 43 43 44 44 43 43 44 45 46 46 46 47 47 47 47 48 49 48 46 46 45 44 44 46 47 47 46
39 40 41 40 38 37 36 36 38 38 38 36 34 35 39 44 48 50 51 51 51 50 51 50 49 48 51 49 46 47 48 48 48 47 45 44 44 45 48 49 49 49 47 45 44 43 43 46 47 44 44 45 46 45 44 45 46 47 49 48 45 44 44 45 46 46 46 47 49 49 49 48 49 49 49 49 49 50 49 48 48 48 47 47 48 49 51 50
42 42 43 42 39 38 37 37 38 39 38 36 35 37 39 42 46 48 51 53 53 52 51 51 50 50 51 51 49 51 51 50 49 48 48 47 44 45 49 51 52 51 47 45 45 43 44 48 48 45 44 45 46 47 48 48 49 50 50 48 46 45 45 46 48 49 49 49 50 51 51 50 50 51 50 51 51 51 50 50 50 50 50 50 50 52 53 53
45 45 45 43 41 41 40 38 38 38 37 36 38 40 41 43 45 46 48 52 53 52 51 50 50 50 51 52 52 54 53 52 50 49 49 48 46 48 51 52 53 51 47 46 45 43 44 48 48 45 45 47 48 51 52 52 51 51 51 51 49 47 47 48 50 50 51 51 52 53 53 52 53 54 54 54 53 53 52 52 52 52 52 52 54 55 55 55
49 48 46 45 44 44 42 39 38 38 38 40 41 43 45 46 46 45 46 48 49 50 51 51 50 50 52 53 54 56 55 53 52 51 51 50 49 50 51 53 54 51 48 47 46 43 43 46 48 48 48 50 52 54 54 54 53 52 53 54 53 50 51 52 52 52 53 53 54 55 56 56 57 58 57 56 55 54 54 54 54 54 54 55 56 57 57 57
51 50 49 48 47 46 44 41 40 39 40 42 43 45 46 48 48 47 46 47 47 48 48 49 49 51 53 54 55 57 57 56 56 56 55 53 52 52 53 55 56 53 50 48 46 44 43 46 50 51 51 52 55 56 55 55 55 55 56 58 57 54 53 55 55 54 55 55 56 57 59 60 60 59 58 58 57 56 55 56 56 56 56 57 57 58 59 59
54 53 52 50 49 48 46 44 43 42 41 43 45 46 47 49 49 49 48 48 48 47 45 45 47 51 53 55 56 58 59 59 58 57 57 56 54 55 57 58 57 56 54 51 48 47 48 50 52 54 53 54 56 57 58 57 56 57 59 59 59 57 56 57 57 55 55 57 58 59 61 62 61 60 59 58 58 57 57 57 57 58 58 57 57 59 60 60
56 56 55 53 51 50 48 47 46 44 44 45 45 46 48 49 50 52 51 50 49 47 45 45 46 47 49 51 53 55 56 58 58 57 57 57 56 57 58 58 58 56 55 54 53 51 52 54 54 56 56 57 59 61 62 60 59 60 61 60 60 60 59 59 59 59 59 61 61 62 64 63 63 62 61 60 60 60 59 59 59 59 59 58 58 58 59 59
59 58 56 55 53 52 51 51 49 47 46 46 46 46 48 49 50 53 53 51 49 47 46 46 45 45 45 45 46 48 49 51 54 54 55 56 56 58 58 58 58 58 56 56 56 54 54 55 54 56 58 59 61 64 64 63 62 63 63 62 62 62 62 61 61 61 63 64 64 64 65 65 64 64 63 62 62 61 60 60 60 60 59 58 58 58 58 58
61 60 59 57 56 55 55 54 51 49 49 48 48 48 48 49 51 54 56 54 51 48 47 47 46 45 46 44 43 43 43 45 48 49 51 52 52 53 55 57 58 58 55 53 53 52 52 52 51 52 55 57 60 62 62 62 63 63 63 62 62 62 62 61 60 61 63 64 64 64 65 65 64 63 63 62 60 59 59 58 59 58 57 57 57 57 57 57
62 62 61 60 59 59 58 56 54 53 52 51 51 50 50 50 52 55 56 56 52 49 48 49 47 46 47 45 42 43 43 43 44 46 49 51 49 49 53 55 56 56 53 50 48 47 46 46 46 48 50 52 55 57 58 59 60 61 61 61 61 60 60 59 58 59 61 61 62 63 64 64 64 63 62 60 59 58 58 58 58 58 57 57 57 57 57 57
59 60 61 60 60 60 60 58 57 56 55 53 53 52 52 52 54 55 56 55 53 51 50 50 48 47 47 45 43 43 43 43 44 45 48 51 49 47 49 52 53 52 51 49 48 47 45 45 46 47 48 50 51 53 54 55 55 57 57 57 57 57 56 56 56 56 58 58 60 63 63 63 64 64 63 62 60 60 59 59 59 59 58 58 58 58 58 58
55 57 57 57 58 60 61 59 59 58 56 55 55 54 54 55 56 57 56 55 53 52 52 51 49 47 46 46 46 45 45 45 45 46 49 51 50 48 47 48 49 48 48 47 47 47 47 47 48 49 49 49 49 50 52 52 52 52 52 52 52 52 52 52 53 54 55 55 59 62 63 63 64 64 63 63 62 62 61 60 60 60 59 59 60 59 59 58
51 53 54 55 56 58 59 58 58 58 58 58 57 56 56 56 56 56 56 54 52 52 52 51 49 47 45 46 47 47 47 48 48 49 51 52 52 50 49 49 49 49 48 47 47 47 49 50 49 48 49 49 49 49 49 49 49 49 50 50 50 50 51 52 52 53 54 55 58 60 62 64 65 64 64 63 63 62 62 61 61 61 61 61 61 60 59 59
47 49 51 51 51 54 56 55 55 56 57 57 57 57 57 56 56 56 56 55 53 52 53 52 50 48 47 47 48 48 49 50 51 52 53 54 55 54 53 52 52 52 51 50 49 49 50 51 49 48 50 50 49 49 48 47 47 48 49 50 50 50 51 52 51 51 52 54 56 59 61 63 64 63 64 64 63 62 62 63 63 63 63 63 62 62 61 61
41 44 46 47 47 50 53 53 53 54 56 56 57 58 57 57 57 57 57 57 56 55 55 54 52 50 50 51 52 52 51 52 53 55 56 57 58 58 58 56 55 55 54 52 51 50 50 51 50 50 51 51 51 50 48 47 47 48 49 50 51 52 52 51 50 50 50 51 53 56 59 61 62 61 62 63 64 63 62 62 62 62 62 62 63 62 62 62
36 38 40 42 45 48 52 53 53 54 55 56 56 57 57 57 58 58 59 59 58 57 57 56 55 53 53 54 55 55 55 55 57 58 58 59 60 61 60 59 57 56 55 53 51 50 50 50 51 51 52 53 53 52 50 49 48 49 48 49 51 53 52 51 51 50 50 51 52 54 55 57 58 58 59 60 62 63 63 62 60 59 59 59 60 61 61 62
Wind_Direction
248 248 248 248 248 248 248 249 249 250 250 250 250 250 250 251 251 251 252 252 252 252 252 253 253 254 254 254 255 255 255 255 255 256 256 256 257 257 257 257 257 257 257 257 258 258 258 259 259 259 260 260 260 260 261 261 261 261 261 262 262 262 262 263 263 264 265 266 267 268 268 269 269 270 270 269 268 268 269 270 272 273 273 273 273 274 274 275
249 248 248 248 248 248 248 248 249 249 250 250 250 250 250 250 251 251 251 252 252 252 252 252 253 253 254 254 254 255 255 255 255 256 256 256 257 257 257 257 258 258 258 258 258 258 258 259 259 259 259 259 260 260 260 261 261 261 261 262 262 262 263 263 264 265 266 267 267 267 268 269 269 269 269 269 269 269 270 271 273 273 273 273 274 274 275 275
249 248 248 248 248 248 248 248 249 249 249 250 250 250 250 250 250 251 251 251 252 252 252 253 253 253 253 254 254 254 255 255 255 256 256 256 257 257 258 258 258 258 258 259 258 259 259 259 259 260 260 260 260 260 261 261 261 261 262 262 262 263 263 264 264 265 266 267 267 267 268 268 268 268 269 270 271 272 272 272 272 272 273 274 274 275 275 275
248 248 248 248 248 248 248 248 248 249 249 250 250 250 250 251 251 251 251 251 251 252 252 252 253 253 253 254 254 254 255 255 255 256 256 257 257 257 258 258 259 259 259 259 259 259 259 259 260 260 260 260 261 261 261 261 262 262 262 262 263 264 264 264 265 266 266 266 267 267 267 267 267 268 269 271 272 273 273 273 273 273 274 274 275 275 275 275
248 248 248 247 247 247 247 248 248 248 249 249 249 250 250 250 251 251 251 251 251 251 252 252 253 253 253 254 254 254 255 255 255 256 256 257 257 257 258 258 259 259 259 259 259 260 260 260 260 260 260 260 261 261 261 262 262 263 263 263 263 264 264 264 265 266 266 267 267 266 266 266 268 269 270 271 273 273 274 274 274 274 274 274 275 275 275 276
249 248 247 247 247 247 247 247 247 248 248 248 249 249 250 250 250 251 251 251 252 252 252 252 252 253 253 253 254 254 254 255 255 256 256 257 257 258 258 258 259 259 259 260 260 260 260 260 260 260 260 260 261 261 261 262 263 263 263 263 263 264 264 264 265 266 267 267 267 266 267 268 269 270 271 272 273 275 275 275 275 274 274 274 275 275 276 277
249 248 248 247 246 246 246 246 247 247 247 247 248 248 249 249 250 250 251 251 252 252 252 253 253 253 253 253 253 254 254 255 255 256 256 257 257 258 258 258 259 259 260 260 261 261 261 261 261 261 261 261 262 262 263 263 263 263 263 263 263 263 264 265 266 266 267 267 267 268 269 270 270 271 272 273 274 275 276 276 275 275 275 275 276 276 277 277
249 249 248 247 246 246 246 246 246 246 246 247 247 248 248 249 250 250 251 251 252 252 252 253 253 253 253 253 254 254 254 255 255 255 256 256 257 257 258 258 259 259 260 260 261 261 261 261 261 262 262 263 263 263 264 264 263 263 263 263 264 264 265 266 267 268 268 268 269 270 271 271 271 272 274 274 274 275 275 275 275 275 276 277 277 277 277 277
250 249 248 247 247 246 246 245 245 246 246 246 247 247 248 249 249 250 250 251 251 252 252 253 253 254 254 254 254 254 254 254 254 254 255 255 256 257 257 258 259 259 259 260 260 261 261 262 262 263 263 264 264 264 264 264 263 263 264 265 266 266 267 267 268 268 269 270 271 271 271 272 273 274 274 274 274 275 274 274 275 276 276 277 277 277 276 275
250 249 248 247 247 246 246 245 245 245 245 246 246 247 248 248 249 250 250 251 251 252 252 253 253 254 254 254 255 255 254 254 255 254 254 255 255 256 256 257 258 258 259 259 260 260 261 262 262 263 264 264 264 264 264 264 265 265 265 266 267 267 267 268 268 269 270 271 271 272 272 273 274 273 273 274 274 274 274 275 275 276 276 276 276 276 275 274
250 249 248 247 247 246 245 245 245 245 245 245 246 246 247 248 249 250 250 251 251 252 252 253 253 254 254 254 255 255 255 255 255 255 254 255 255 255 256 256 257 257 258 258 259 260 260 261 262 263 263 263 264 264 265 265 265 265 265 266 266 267 267 268 269 270 270 270 271 272 273 273 273 273 273 274 274 274 274 275 275 276 276 276 276 275 273 272
250 249 248 247 246 246 245 245 244 244 244 245 245 245 246 247 248 249 250 250 251 252 252 253 253 253 254 254 254 255 255 255 255 255 255 255 255 255 255 256 256 257 257 258 259 259 260 260 261 262 262 263 263 264 264 264 264 265 266 267 267 267 268 269 269 269 269 269 270 271 272 272 272 273 274 274 275 274 274 275 275 276 276 276 275 274 274 273
250 249 248 247 246 245 244 244 244 244 244 244 245 245 246 247 247 248 249 250 251 251 252 252 252 253 253 253 254 255 255 255 255 255 255 255 255 255 255 256 256 257 257 258 258 259 259 260 261 261 262 262 262 263 264 264 265 266 266 266 266 267 268 268 268 267 267 268 269 270 270 270 271 273 274 274 274 274 274 274 274 275 276 275 274 273 272 271
251 249 248 247 246 245 244 243 243 243 243 244 244 244 245 246 246 247 248 249 250 251 251 251 252 252 253 253 254 254 255 255 254 254 255 255 255 255 255 255 256 256 257 257 258 258 259 259 260 260 261 261 262 263 263 264 264 264 264 265 265 266 267 267 266 266 267 267 268 268 268 269 270 272 273 274 273 272 273 274 274 275 275 274 272 271 267 264
252 250 248 247 245 244 243 242 242 243 243 243 244 244 244 245 245 246 247 248 249 249 250 251 251 252 253 253 254 254 255 255 254 254 254 254 254 255 255 255 255 256 256 257 257 258 258 258 259 259 260 261 261 262 262 262 263 263 264 264 264 265 265 264 264 264 265 266 267 267 267 268 270 271 273 273 272 272 272 273 274 274 274 272 271 269 265 262
253 250 248 247 245 244 243 242 242 242 242 243 243 243 244 244 245 245 246 247 248 248 249 250 251 252 253 254 254 255 255 254 254 253 254 254 254 254 254 254 255 255 255 256 256 257 257 258 258 258 259 259 260 260 260 261 262 263 262 262 261 261 261 261 262 262 263 264 266 266 267 269 270 271 270 270 271 272 272 272 273 274 273 272 271 268 265 262
254 251 249 247 245 243 243 242 242 242 242 242 243 243 243 244 244 244 245 245 246 247 248 249 251 252 253 254 254 254 254 254 254 254 254 253 253 253 254 254 254 255 255 255 255 256 256 257 257 257 257 258 258 259 259 260 260 260 259 257 257 258 258 260 261 262 264 265 266 266 267 269 270 269 267 268 270 270 271 272 272 272 271 271 269 267 264 261
254 252 249 247 245 244 243 242 242 242 242 242 242 242 242 243 243 244 244 244 245 246 248 249 251 252 253 254 254 254 254 254 254 253 253 253 253 253 253 253 254 254 254 254 254 255 255 255 255 255 256 256 257 257 258 258 257 256 255 256 257 258 259 261 262 263 264 265 264 264 265 267 268 267 267 267 267 268 270 271 270 269 269 267 265 264 263 260
255 252 250 248 245 244 243 242 242 241 242 242 242 242 242 243 244 244 244 245 245 246 248 249 250 251 252 253 253 253 253 254 253 253 253 253 253 253 253 253 253 253 253 253 253 253 253 253 253 254 254 255 255 256 256 255 255 255 256 257 258 259 259 259 260 261 261 262 264 264 264 265 266 267 267 266 264 263 264 266 267 267 266 264 263 262 261 259
256 253 250 248 246 245 243 243 242 241 242 242 242 242 243 243 244 244 244 245 245 246 247 248 249 250 251 252 252 252 252 253 253 253 253 253 253 253 253 253 253 252 252 252 252 252 251 251 252 253 253 254 254 254 254 254 254 256 257 257 257 257 256 256 258 259 260 262 264 265 265 264 264 264 263 262 261 260 258 259 261 262 262 263 265 264 262 258
258 255 251 249 247 245 244 243 242 242 242 242 243 243 243 243 243 244 244 245 245 245 246 248 248 248 249 250 252 252 251 252 253 253 253 252 252 252 252 252 252 252 251 251 250 250 250 251 251 252 252 252 252 252 252 253 253 255 257 257 256 256 256 256 257 258 259 259 260 262 265 265 264 262 260 259 260 258 257 257 258 259 262 263 265 266 262 258
259 257 254 251 248 246 245 244 243 242 242 242 242 243 243 243 243 244 245 245 245 245 246 247 247 247 249 249 251 252 250 250 252 252 252 252 252 251 251 251 251 251 251 250 250 250 250 250 251 252 252 252 252 252 252 252 253 254 256 258 258 257 257 256 256 256 256 256 255 256 260 262 262 261 260 259 257 254 254 256 257 258 261 261 261 261 259 258
259 257 255 253 250 248 246 245 244 243 242 242 242 242 242 242 243 244 244 244 245 245 246 247 246 246 247 248 250 252 250 250 251 251 251 251 251 251 250 250 251 251 250 250 250 250 250 251 252 252 253 252 252 253 253 253 253 254 255 257 258 258 258 256 255 256 256 255 252 252 254 257 259 261 261 260 258 255 254 255 256 256 257 259 258 257 255 254
259 257 256 254 252 249 247 246 245 244 243 242 242 242 242 242 242 244 244 245 245 245 245 246 246 246 246 247 250 251 251 250 250 250 250 250 251 251 250 250 250 250 250 250 251 251 251 252 252 253 253 253 253 254 254 254 254 254 254 255 256 257 258 258 256 256 256 254 252 251 252 256 259 262 263 261 258 257 256 256 257 257 257 260 259 257 255 252
262 258 255 254 253 251 249 246 245 244 243 243 242 242 242 242 243 244 245 245 245 245 245 246 246 246 246 247 248 250 251 250 249 250 250 249 249 249 249 249 249 249 250 251 252 253 252 252 253 254 254 254 254 254 254 254 254 254 255 255 256 256 257 258 257 255 254 253 252 253 255 258 261 264 264 261 258 255 256 258 259 260 260 260 259 258 257 255
265 261 257 254 254 253 251 248 246 245 244 243 243 242 241 242 243 243 243 245 245 245 245 246 246 247 247 247 247 249 250 250 250 250 249 248 248 249 249 248 248 249 250 252 254 254 253 252 253 253 254 255 254 253 252 253 254 254 254 255 256 256 257 257 257 255 253 252 253 255 257 260 263 265 265 264 260 255 254 256 259 261 261 260 259 258 258 257
265 264 261 257 254 253 252 250 248 246 245 244 243 242 241 241 241 242 242 244 245 244 245 246 246 246 246 246 246 247 247 248 249 249 248 248 249 249 249 249 249 250 251 252 252 253 253 252 252 252 254 254 253 253 252 253 254 254 254 256 257 257 257 256 255 254 254 254 255 256 258 262 265 266 266 266 265 261 254 253 255 258 260 260 259 259 259 258
266 265 264 261 257 253 251 250 249 247 246 245 244 244 242 241 241 241 241 243 244 244 245 246 247 246 245 244 245 245 245 246 247 248 249 249 249 249 249 249 250 250 250 250 251 252 253 252 251 252 253 253 253 254 254 254 254 254 255 256 257 258 256 255 253 254 255 256 258 259 260 263 265 267 267 266 267 266 260 254 252 252 254 256 257 257 258 257
269 266 264 263 262 257 252 249 248 248 247 246 247 246 243 242 242 242 242 243 245 244 245 245 246 245 244 243 243 244 244 244 244 246 248 249 248 248 249 250 250 249 249 249 250 251 251 251 251 251 252 253 253 254 253 252 252 253 253 254 255 256 257 256 255 255 256 257 259 260 260 260 263 265 265 265 265 267 264 259 254 251 250 252 253 253 253 253
270 268 265 263 263 261 257 252 248 248 248 247 247 246 244 242 241 242 243 243 244 244 245 245 245 244 244 244 244 243 243 244 243 244 247 248 248 249 249 249 249 248 247 248 249 249 249 250 250 251 252 253 253 253 253 252 253 254 254 254 254 256 258 259 259 258 257 256 257 258 257 257 260 262 263 264 265 265 265 263 259 256 255 254 252 252 253 253
270 269 267 264 262 261 259 256 251 249 248 247 247 246 246 243 240 240 242 242 242 244 246 247 247 246 245 244 245 245 244 244 243 242 244 246 247 248 249 249 249 248 247 247 248 248 248 248 247 247 249 252 254 254 253 252 253 254 254 255 256 257 258 259 260 258 257 255 254 254 256 254 256 260 263 265 264 263 263 263 262 260 259 258 255 254 255 254
270 268 267 265 263 261 259 259 256 253 250 248 247 246 246 245 242 241 241 241 242 243 246 248 249 248 246 245 246 246 244 244 242 240 242 245 246 247 248 249 249 249 248 247 248 249 248 247 245 246 247 249 253 254 254 253 254 255 256 257 258 257 257 257 257 256 255 254 253 253 254 254 254 257 262 265 265 263 262 263 263 262 262 261 258 256 257 257
272 269 266 264 263 262 260 259 258 256 253 249 247 246 246 245 244 243 242 241 242 242 244 247 249 248 247 246 247 246 244 243 241 238 239 242 245 246 247 248 249 250 249 249 249 250 250 248 246 248 249 249 251 254 255 254 254 256 257 257 258 257 257 255 254 255 255 255 255 255 255 256 256 256 259 263 264 265 265 264 264 264 264 264 262 260 260 260
274 271 267 264 263 262 261 259 257 256 255 252 248 246 245 244 243 243 243 242 242 242 243 246 248 249 249 248 248 247 245 244 243 239 237 240 243 246 248 248 249 251 251 250 250 249 250 250 248 249 251 252 252 254 255 254 253 255 257 257 257 256 256 255 254 254 255 256 257 257 256 257 257 257 258 261 264 266 267 266 266 266 267 267 266 265 262 261
274 273 270 266 263 261 260 259 258 256 255 254 252 247 244 243 243 243 243 243 242 242 243 244 247 249 250 249 249 250 248 247 245 242 238 238 242 246 250 250 250 251 252 251 250 249 249 251 250 249 251 253 253 253 254 255 255 255 255 254 253 255 256 256 256 255 255 256 256 257 256 257 258 258 259 262 265 267 269 270 270 269 269 268 268 266 264 262
273 273 271 268 265 262 260 259 257 256 253 253 253 250 245 243 244 244 243 243 242 241 242 243 244 248 249 248 248 251 250 249 247 245 242 240 242 246 251 252 251 251 251 250 249 249 249 251 250 249 249 251 253 253 255 257 257 256 255 255 254 255 256 257 257 256 256 256 256 257 256 257 259 261 262 264 266 269 270 272 273 272 271 270 269 268 266 264
271 271 270 269 268 265 261 258 256 255 253 252 251 250 247 245 244 244 244 244 242 240 240 241 242 245 248 248 247 248 249 249 249 249 246 243 242 245 250 253 252 251 250 249 250 249 250 251 251 249 249 251 254 256 255 256 257 256 256 256 256 256 256 258 258 257 257 256 257 257 258 259 262 264 265 266 267 269 271 272 273 272 272 270 270 269 269 268
270 269 269 269 269 266 262 258 256 255 254 252 250 249 248 246 245 244 243 244 243 241 239 240 241 243 247 249 248 247 247 247 248 249 250 247 245 246 249 252 252 252 250 250 250 249 250 252 252 251 251 253 255 255 254 253 254 256 257 257 257 257 257 257 257 257 256 257 258 259 260 261 263 264 264 265 266 268 269 270 270 270 270 269 268 267 268 269
269 267 268 268 268 266 263 259 257 256 254 250 247 247 247 246 247 246 245 245 245 244 242 241 241 243 246 249 250 250 249 249 249 249 251 251 250 249 250 251 252 253 252 251 250 248 249 253 255 254 254 254 254 254 254 254 254 257 260 260 258 257 257 256 256 257 257 257 258 260 261 261 261 262 263 264 265 267 268 268 268 268 268 268 267 267 268 270
268 267 267 266 265 264 263 261 258 255 252 248 245 246 247 247 248 248 247 248 248 247 244 242 241 242 245 247 250 252 253 253 252 251 250 251 252 252 254 255 255 254 252 252 252 251 251 255 257 255 254 253 253 253 255 256 257 257 259 259 258 256 256 257 256 257 258 259 260 261 262 262 262 263 263 264 265 266 267 267 267 267 267 267 267 268 269 269
267 266 265 264 263 263 263 261 258 254 252 250 247 246 247 248 249 248 248 249 249 248 247 245 243 241 242 244 247 250 252 253 253 252 251 250 250 251 253 255 256 255 253 252 252 253 253 254 256 255 254 254 254 255 255 257 258 258 258 259 259 258 257 258 259 259 260 262 262 262 262 262 262 263 264 265 266 266 266 266 266 266 266 266 267 268 269 269
266 265 264 263 263 262 262 260 258 255 252 250 249 248 247 248 249 249 248 248 249 250 250 248 246 243 242 243 245 247 250 252 254 255 256 255 253 253 253 254 256 257 258 256 254 253 253 253 255 256 256 256 257 258 257 256 257 258 259 260 261 261 260 259 260 260 261 261 261 261 261 261 262 263 263 264 264 264 264 264 265 265 265 266 267 268 269 270
265 264 264 263 262 261 260 259 257 254 251 250 249 249 248 248 249 250 249 249 249 251 251 250 249 248 247 247 247 250 252 255 257 258 259 261 260 259 259 259 260 260 260 260 258 255 254 254 256 258 259 259 260 260 259 258 258 258 259 261 262 262 261 261 261 260 260 259 259 260 260 261 262 262 262 262 262 262 262 263 263 264 264 265 265 266 267 268
264 263 263 262 261 260 258 256 255 253 251 250 249 248 248 249 249 251 251 249 248 249 250 251 251 252 252 252 252 253 254 257 259 260 260 261 261 263 263 263 263 261 260 260 260 259 258 258 258 259 261 261 262 262 262 261 260 259 259 259 260 261 261 261 261 261 261 260 260 260 261 261 262 262 262 262 262 263 263 263 263 264 265 265 265 265 266 266
263 262 261 260 259 257 256 254 253 252 250 248 247 246 247 247 248 249 250 249 247 247 248 249 250 251 253 253 254 255 254 255 258 260 260 260 260 263 265 265 264 264 263 262 262 262 262 262 260 260 261 262 262 263 264 263 262 260 259 259 259 260 261 261 262 262 262 261 261 261 261 261 261 261 261 262 263 263 263 263 263 264 264 264 264 265 265 265
261 260 259 258 257 256 255 254 252 250 249 248 246 245 244 245 246 248 249 250 249 247 247 248 249 250 253 254 254 255 255 255 255 257 258 258 257 258 261 263 264 266 267 268 267 266 265 265 264 262 261 262 262 263 264 264 264 263 262 261 260 259 260 260 260 261 261 262 262 261 261 262 262 261 260 260 260 260 261 261 262 262 262 262 262 263 263 264
259 258 257 256 255 254 253 252 250 249 248 247 246 245 244 244 245 247 248 249 249 247 246 247 247 248 251 252 252 253 254 255 255 255 256 257 256 255 256 259 262 264 266 268 270 270 268 266 264 262 260 260 261 262 263 263 263 264 263 262 261 260 259 258 258 259 260 261 262 261 261 262 262 261 261 261 260 259 259 259 260 261 261 261 261 262 263 264
258 257 256 255 253 253 252 250 248 248 247 246 245 245 244 244 245 247 249 250 250 250 248 248 247 247 248 250 250 250 250 251 251 253 254 255 255 254 253 255 258 260 261 263 263 264 263 262 260 260 260 259 259 260 261 262 262 263 264 264 263 263 262 260 258 258 259 260 261 262 262 262 262 262 262 262 262 261 261 260 260 261 261 261 262 263 264 264
258 256 255 253 252 252 252 250 249 247 246 245 245 244 244 244 245 247 249 251 251 252 251 250 249 248 248 249 250 249 249 249 249 250 252 254 254 253 252 252 253 254 254 255 255 256 257 257 257 258 258 258 258 258 259 261 263 264 265 265 264 264 263 262 260 259 258 258 259 260 261 262 262 263 263 263 263 264 264 263 262 262 262 262 263 263 264 265
258 256 254 253 252 253 254 253 251 249 247 246 245 244 243 244 244 245 247 248 248 249 250 249 248 246 245 246 247 247 248 249 249 249 249 251 253 252 251 250 250 250 251 251 252 254 256 257 258 258 258 259 259 259 259 260 262 264 265 265 265 265 264 263 263 262 260 259 259 260 261 261 263 264 265 266 265 264 264 264 263 263 263 264 264 264 264 264
258 256 255 254 251 250 251 251 249 248 247 245 244 244 244 244 243 244 245 245 245 245 247 248 247 245 243 243 243 243 244 245 247 247 247 249 250 251 250 250 250 251 252 252 253 255 258 260 261 260 261 261 260 261 261 261 262 262 263 265 266 266 266 266 266 266 265 263 262 261 260 261 262 262 263 265 266 266 265 264 263 263 263 263 264 264 263 263
260 257 254 252 248 246 247 248 246 245 245 244 243 242 242 243 243 243 244 245 245 244 245 247 247 245 244 243 243 243 243 244 245 247 248 249 251 253 254 254 254 255 255 255 255 255 256 258 259 259 260 261 262 262 262 262 262 262 263 264 265 266 267 267 267 267 266 265 264 262 262 262 262 261 261 262 264 266 268 268 267 265 264 263 262 261 261 260
Height
10636 10639 10641 10644 10647 10649 10652 10654 10656 10658 10660 10663 10666 10668 10671 10673 10675 10677 10679 10682 10684 10686 10688 10691 10694 10696 10699 10701 10704 10705 10707 10708 10709 10711 10713 10714 10715 10718 10720 10720 10723 10726 10726 10729 10731 10732 10734 10735 10737 10740 10741 10742 10743 10745 10748 10749 10752 10756 10757 10759 10756 10752 10753 10753 10750 10747 10752 10763 10767 10764 10757 10753 10754 10756 10756 10756 10760 10764 10767 10772 10771 10769 10770 10770 10770 10770 10771 10772
10629 10631 10633 10636 10639 10641 10644 10646 10648 10651 10653 10655 10658 10660 10663 10666 10668 10670 10672 10674 10676 10679 10681 10684 10687 10690 10692 10694 10696 10698 10699 10699 10701 10705 10705 10707 10709 10710 10712 10712 10715 10718 10719 10721 10723 10724 10725 10727 10730 10732 10733 10733 10735 10737 10739 10741 10744 10747 10749 10749 10745 10743 10746 10745 10740 10741 10749 10756 10758 10756 10750 10744 10744 10745 10743 10741 10748 10758 10763 10768 10768 10761 10758 10760 10761 10762 10762 10762
10621 10623 10626 10628 10631 10633 10636 10638 10641 10643 10645 10648 10650 10653 10656 10658 10660 10662 10664 10667 10669 10671 10674 10677 10680 10682 10685 10687 10689 10690 10690 10692 10695 10697 10698 10700 10702 10703 10705 10706 10707 10710 10712 10714 10714 10715 10717 10719 10721 10723 10725 10725 10726 10729 10730 10733 10736 10737 10741 10739 10734 10737 10739 10736 10732 10736 10743 10746 10748 10748 10742 10736 10734 10734 10734 10733 10738 10749 10756 10760 10759 10752 10749 10750 10752 10754 10754 10752
10613 10616 10618 10620 10623 10625 10628 10631 10633 10636 10638 10640 10642 10645 10648 10650 10653 10655 10657 10659 10661 10664 10667 10670 10672 10675 10677 10679 10681 10681 10682 10685 10688 10690 10692 10694 10695 10697 10698 10699 10700 10702 10704 10705 10706 10708 10710 10712 10714 10715 10717 10716 10718 10721 10722 10724 10727 10730 10733 10729 10727 10731 10730 10726 10726 10730 10735 10736 10739 10739 10732 10727 10726 10726 10728 10731 10732 10737 10745 10748 10747 10744 10742 10741 10743 10744 10743 10741
10606 10608 10610 10613 10615 10618 10621 10623 10626 10628 10630 10632 10635 10638 10640 10643 10645 10647 10649 10651 10653 10656 10660 10662 10665 10667 10670 10672 10673 10673 10675 10678 10681 10683 10686 10687 10688 10690 10691 10692 10693 10695 10696 10697 10698 10701 10703 10704 10706 10707 10708 10707 10710 10713 10713 10716 10720 10723 10723 10720 10720 10723 10720 10717 10720 10723 10725 10728 10730 10727 10720 10718 10721 10721 10722 10728 10727 10727 10733 10737 10735 10734 10733 10732 10734 10735 10733 10732
10599 10601 10603 10606 10608 10611 10613 10616 10618 10620 10623 10625 10628 10630 10633 10635 10637 10639 10641 10643 10646 10649 10653 10655 10658 10660 10662 10664 10665 10665 10667 10670 10674 10677 10679 10680 10681 10682 10684 10686 10687 10688 10689 10690 10692 10693 10695 10697 10698 10699 10699 10700 10703 10704 10706 10710 10714 10715 10714 10712 10712 10714 10712 10709 10712 10715 10718 10720 10716 10712 10710 10712 10715 10714 10717 10723 10723 10719 10720 10723 10722 10720 10721 10724 10725 10726 10725 10725
10593 10594 10596 10599 10601 10603 10606 10608 10611 10613 10615 10618 10620 10623 10625 10627 10630 10632 10634 10636 10639 10643 10646 10648 10650 10652 10654 10656 10657 10657 10659 10663 10667 10670 10671 10673 10674 10675 10677 10678 10679 10681 10682 10684 10685 10686 10688 10689 10690 10690 10691 10692 10696 10697 10699 10704 10707 10707 10704 10703 10703 10705 10704 10701 10705 10708 10710 10710 10704 10701 10703 10705 10706 10706 10713 10719 10716 10713 10710 10709 10707 10705 10710 10716 10717 10717 10719 10720
10586 10588 10590 10592 10594 10597 10599 10601 10604 10606 10608 10611 10613 10616 10618 10620 10622 10624 10627 10630 10633 10636 10639 10641 10643 10645 10646 10648 10649 10649 10652 10657 10660 10662 10664 10665 10666 10668 10669 10670 10672 10674 10675 10676 10677 10679 10680 10680 10681 10682 10684 10686 10689 10691 10693 10696 10698 10697 10694 10694 10695 10697 10696 10694 10698 10700 10700 10701 10696 10694 10694 10694 10696 10699 10707 10711 10707 10706 10702 10698 10695 10695 10701 10708 10709 10708 10711 10712
10580 10582 10583 10585 10588 10590 10592 10595 10597 10599 10601 10604 10606 10609 10611 10613 10616 10618 10620 10623 10627 10629 10632 10634 10636 10638 10639 10640 10641 10642 10646 10649 10651 10655 10656 10657 10659 10660 10662 10663 10665 10666 10667 10669 10670 10671 10672 10673 10674 10676 10678 10680 10682 10684 10684 10685 10687 10688 10686 10687 10688 10688 10688 10688 10690 10690 10691 10693 10688 10684 10684 10686 10689 10692 10698 10700 10698 10697 10692 10688 10687 10688 10694 10699 10699 10700 10702 10703
10574 10575 10577 10579 10581 10584 10586 10588 10590 10592 10595 10597 10600 10602 10605 10607 10609 10611 10614 10617 10620 10623 10625 10627 10629 10631 10632 10633 10634 10635 10638 10642 10643 10646 10649 10650 10652 10652 10654 10655 10657 10658 10660 10661 10662 10663 10665 10666 10667 10670 10672 10673 10674 10675 10676 10677 10679 10680 10680 10680 10680 10680 10680 10681 10682 10683 10684 10684 10680 10675 10675 10678 10681 10684 10688 10691 10691 10688 10683 10681 10680 10681 10686 10691 10691 10693 10693 10693
10568 10570 10571 10573 10575 10577 10580 10582 10584 10586 10588 10591 10593 10596 10598 10600 10603 10605 10608 10611 10614 10616 10619 10621 10622 10624 10625 10626 10628 10628 10631 10636 10636 10638 10641 10642 10644 10645 10646 10648 10649 10651 10652 10653 10654 10656 10658 10659 10661 10663 10664 10665 10665 10666 10669 10670 10670 10671 10673 10673 10672 10672 10672 10674 10676 10677 10677 10675 10671 10669 10668 10670 10672 10674 10680 10684 10683 10679 10676 10675 10673 10674 10678 10682 10684 10685 10685 10685
10562 10564 10566 10567 10569 10571 10573 10575 10577 10580 10582 10585 10587 10590 10592 10594 10597 10599 10602 10605 10608 10610 10613 10615 10616 10616 10618 10619 10621 10621 10624 10629 10629 10630 10633 10634 10636 10637 10639 10640 10641 10643 10644 10646 10647 10648 10650 10652 10654 10655 10656 10657 10657 10658 10661 10661 10661 10663 10666 10666 10664 10664 10665 10668 10671 10669 10668 10667 10665 10665 10661 10660 10663 10667 10673 10676 10675 10671 10669 10667 10666 10667 10671 10673 10674 10676 10679 10678
10556 10558 10560 10562 10564 10565 10567 10569 10571 10574 10576 10579 10581 10584 10586 10589 10591 10594 10596 10599 10602 10604 10606 10608 10608 10609 10611 10613 10614 10615 10617 10621 10622 10623 10625 10627 10629 10630 10631 10633 10634 10636 10637 10638 10639 10641 10643 10645 10646 10647 10648 10648 10649 10651 10652 10653 10655 10656 10658 10658 10656 10657 10659 10662 10663 10659 10659 10660 10660 10660 10653 10651 10657 10662 10666 10669 10668 10663 10661 10661 10659 10662 10664 10665 10666 10669 10673 10672
10551 10552 10554 10556 10558 10559 10561 10563 10565 10568 10570 10573 10576 10578 10581 10583 10586 10588 10591 10593 10596 10599 10600 10601 10602 10603 10605 10606 10608 10609 10610 10613 10616 10616 10617 10619 10621 10622 10624 10625 10627 10628 10630 10631 10632 10633 10636 10637 10638 10639 10640 10640 10642 10645 10645 10646 10648 10648 10650 10650 10649 10650 10653 10654 10653 10651 10652 10654 10655 10652 10645 10646 10653 10657 10660 10662 10660 10656 10655 10655 10654 10656 10657 10658 10659 10662 10665 10664
10546 10547 10548 10550 10552 10553 10555 10557 10560 10562 10565 10568 10570 10573 10575 10578 10580 10583 10586 10588 10590 10593 10594 10594 10595 10597 10599 10601 10602 10602 10603 10605 10608 10609 10610 10612 10614 10615 10616 10618 10619 10621 10622 10624 10625 10626 10628 10629 10630 10632 10632 10633 10636 10637 10638 10638 10639 10641 10642 10642 10643 10644 10645 10644 10645 10646 10647 10647 10647 10644 10638 10640 10648 10653 10655 10655 10652 10650 10650 10649 10648 10650 10650 10651 10652 10654 10656 10656
10541 10542 10543 10545 10546 10548 10549 10551 10554 10557 10560 10562 10564 10567 10570 10573 10575 10578 10580 10582 10585 10586 10588 10588 10589 10591 10594 10595 10596 10596 10596 10598 10600 10602 10604 10605 10607 10608 10609 10611 10612 10614 10615 10616 10617 10619 10620 10621 10623 10624 10625 10626 10628 10629 10631 10631 10632 10635 10635 10635 10635 10636 10637 10636 10637 10639 10640 10641 10641 10637 10632 10635 10643 10648 10649 10648 10646 10644 10644 10643 10643 10643 10643 10644 10645 10647 10648 10649
10536 10537 10538 10539 10541 10542 10544 10546 10549 10552 10554 10556 10559 10562 10565 10568 10570 10572 10575 10577 10579 10580 10582 10583 10584 10587 10588 10589 10589 10589 10589 10591 10593 10596 10597 10598 10600 10601 10602 10604 10605 10607 10608 10609 10610 10612 10613 10614 10616 10617 10618 10619 10621 10622 10623 10625 10627 10627 10625 10625 10626 10628 10630 10630 10631 10633 10635 10637 10635 10631 10628 10630 10636 10641 10643 10644 10642 10639 10638 10638 10637 10637 10638 10638 10639 10640 10641 10642
10531 10532 10533 10534 10536 10537 10539 10541 10544 10547 10549 10551 10554 10557 10559 10562 10564 10567 10569 10571 10573 10575 10577 10578 10578 10582 10583 10583 10583 10582 10583 10586 10587 10589 10590 10592 10593 10595 10596 10597 10599 10600 10601 10602 10604 10605 10606 10608 10609 10610 10611 10612 10614 10615 10617 10619 10620 10617 10615 10617 10620 10623 10624 10625 10626 10628 10630 10630 10627 10625 10624 10626 10628 10632 10637 10641 10639 10635 10633 10632 10632 10632 10632 10633 10634 10635 10635 10637
10527 10527 10528 10529 10530 10532 10534 10536 10539 10541 10544 10547 10549 10551 10554 10557 10559 10562 10563 10566 10569 10571 10571 10571 10573 10576 10577 10577 10576 10576 10579 10581 10581 10583 10584 10586 10587 10588 10590 10591 10592 10594 10595 10596 10597 10598 10599 10600 10602 10603 10605 10606 10608 10609 10611 10611 10611 10609 10608 10612 10615 10616 10619 10620 10621 10623 10624 10623 10620 10618 10619 10621 10622 10625 10631 10634 10634 10631 10628 10627 10627 10627 10626 10626 10629 10631 10632 10632
10522 10523 10523 10524 10526 10527 10529 10531 10534 10536 10539 10541 10543 10547 10549 10552 10555 10556 10557 10561 10564 10565 10565 10566 10569 10571 10571 10571 10569 10571 10575 10575 10576 10578 10579 10580 10582 10583 10584 10584 10586 10587 10589 10590 10591 10591 10592 10594 10596 10598 10599 10601 10602 10603 10604 10604 10604 10603 10602 10606 10608 10609 10612 10615 10616 10618 10619 10619 10616 10611 10611 10615 10617 10620 10625 10627 10628 10626 10624 10623 10622 10621 10621 10621 10623 10626 10627 10627
10518 10519 10519 10520 10521 10523 10524 10526 10529 10531 10534 10536 10538 10542 10544 10547 10549 10549 10552 10555 10558 10559 10559 10560 10564 10565 10564 10565 10563 10566 10571 10570 10571 10573 10573 10575 10577 10577 10578 10579 10580 10582 10583 10584 10584 10585 10587 10589 10591 10592 10594 10595 10595 10596 10598 10598 10599 10597 10596 10598 10601 10602 10606 10610 10612 10613 10614 10615 10614 10608 10605 10607 10609 10613 10619 10622 10624 10622 10619 10619 10618 10618 10617 10617 10620 10622 10622 10622
10514 10514 10515 10516 10517 10518 10520 10522 10524 10527 10529 10531 10533 10536 10538 10541 10542 10543 10547 10549 10551 10553 10553 10554 10558 10558 10559 10559 10558 10560 10565 10566 10566 10567 10568 10570 10571 10572 10572 10573 10575 10576 10577 10578 10578 10580 10582 10584 10586 10587 10588 10588 10589 10590 10592 10593 10593 10593 10591 10591 10593 10595 10599 10605 10608 10607 10609 10611 10610 10607 10602 10600 10601 10605 10612 10618 10618 10617 10616 10615 10615 10615 10614 10614 10617 10618 10618 10618
10509 10510 10510 10511 10512 10513 10515 10517 10519 10522 10524 10526 10528 10530 10533 10534 10535 10537 10541 10543 10544 10546 10546 10548 10551 10552 10552 10553 10554 10556 10559 10561 10561 10562 10564 10565 10566 10566 10566 10569 10571 10571 10571 10571 10573 10575 10578 10580 10582 10582 10582 10582 10583 10585 10586 10587 10588 10588 10587 10586 10586 10588 10591 10598 10602 10602 10604 10606 10605 10603 10598 10595 10595 10598 10605 10611 10613 10612 10612 10612 10612 10612 10611 10611 10614 10614 10614 10614
10505 10506 10506 10507 10508 10509 10511 10513 10515 10516 10518 10520 10522 10524 10526 10527 10529 10532 10535 10536 10538 10540 10540 10541 10543 10544 10546 10550 10551 10549 10552 10555 10555 10556 10558 10560 10560 10559 10562 10565 10565 10564 10564 10566 10568 10571 10574 10575 10577 10576 10575 10576 10578 10580 10580 10581 10582 10583 10583 10581 10580 10582 10585 10591 10596 10598 10598 10599 10599 10597 10594 10591 10591 10593 10599 10604 10606 10606 10607 10608 10607 10607 10608 10609 10609 10610 10609 10610
10501 10501 10501 10502 10503 10504 10506 10508 10510 10511 10513 10515 10516 10518 10519 10522 10525 10528 10529 10530 10531 10533 10534 10534 10535 10538 10542 10546 10546 10543 10546 10548 10549 10551 10553 10554 10554 10553 10557 10560 10558 10558 10560 10563 10564 10566 10569 10571 10572 10571 10569 10570 10573 10574 10574 10575 10576 10577 10577 10576 10575 10578 10581 10584 10589 10592 10592 10592 10591 10590 10589 10588 10587 10588 10592 10595 10599 10601 10603 10603 10602 10603 10605 10605 10605 10605 10605 10607
10497 10497 10497 10498 10498 10500 10502 10503 10505 10506 10508 10510 10511 10512 10514 10518 10520 10521 10524 10523 10523 10527 10527 10526 10529 10532 10537 10541 10539 10538 10540 10541 10543 10546 10546 10547 10548 10549 10553 10552 10552 10554 10557 10559 10560 10560 10563 10566 10566 10565 10563 10565 10567 10568 10568 10570 10572 10572 10572 10570 10570 10574 10577 10579 10582 10584 10585 10586 10585 10585 10585 10584 10583 10582 10584 10586 10590 10596 10600 10599 10599 10600 10601 10600 10600 10601 10602 10603
10493 10493 10493 10494 10494 10496 10497 10498 10500 10501 10503 10504 10504 10506 10511 10513 10514 10515 10518 10516 10516 10520 10520 10520 10523 10526 10532 10534 10531 10532 10533 10534 10538 10539 10538 10541 10543 10545 10546 10545 10547 10551 10554 10555 10554 10554 10557 10560 10560 10559 10559 10559 10560 10560 10562 10566 10567 10567 10566 10566 10566 10569 10571 10574 10576 10577 10578 10579 10580 10581 10581 10581 10579 10576 10577 10579 10581 10588 10595 10596 10597 10598 10597 10595 10596 10596 10598 10598
10488 10489 10489 10489 10490 10491 10492 10493 10495 10496 10497 10497 10498 10503 10506 10507 10508 10511 10512 10510 10510 10513 10514 10514 10516 10521 10526 10525 10524 10525 10527 10530 10533 10531 10531 10535 10538 10538 10538 10540 10543 10546 10549 10549 10548 10549 10552 10554 10555 10555 10554 10553 10553 10555 10558 10562 10562 10561 10562 10562 10562 10562 10564 10567 10569 10571 10573 10575 10575 10575 10576 10577 10574 10571 10571 10573 10575 10579 10585 10590 10593 10595 10594 10592 10592 10593 10594 10593
10484 10484 10484 10485 10485 10486 10487 10488 10489 10490 10491 10492 10495 10499 10501 10502 10504 10506 10506 10505 10505 10507 10508 10508 10510 10514 10518 10517 10517 10519 10521 10524 10527 10526 10526 10528 10531 10531 10532 10535 10537 10540 10543 10542 10543 10545 10546 10548 10550 10549 10548 10547 10548 10550 10553 10556 10556 10555 10557 10557 10557 10556 10556 10559 10563 10566 10568 10570 10570 10569 10571 10572 10570 10567 10565 10567 10571 10573 10576 10582 10587 10589 10589 10588 10588 10590 10590 10589
10479 10479 10479 10480 10480 10480 10482 10483 10484 10485 10485 10488 10491 10492 10494 10497 10499 10501 10500 10499 10500 10501 10501 10501 10503 10508 10511 10510 10509 10512 10515 10519 10521 10522 10520 10521 10524 10525 10527 10530 10531 10534 10537 10537 10537 10539 10541 10543 10545 10544 10543 10542 10543 10545 10548 10550 10550 10550 10550 10551 10552 10552 10551 10554 10557 10560 10563 10565 10564 10563 10565 10568 10566 10561 10559 10562 10567 10568 10569 10575 10580 10583 10584 10583 10584 10585 10584 10584
10475 10475 10475 10475 10475 10475 10476 10478 10479 10480 10480 10483 10485 10486 10489 10492 10494 10495 10493 10492 10494 10496 10495 10495 10498 10502 10504 10503 10502 10506 10511 10513 10516 10517 10515 10515 10518 10519 10521 10523 10525 10527 10530 10531 10532 10534 10537 10539 10540 10540 10538 10537 10538 10539 10543 10545 10544 10544 10544 10545 10547 10548 10548 10550 10551 10553 10556 10558 10558 10558 10560 10563 10562 10557 10555 10558 10561 10562 10565 10570 10574 10577 10578 10577 10579 10579 10578 10578
10471 10470 10470 10470 10469 10470 10471 10472 10474 10475 10476 10478 10479 10481 10483 10486 10488 10487 10485 10487 10489 10491 10491 10490 10493 10495 10497 10498 10497 10500 10505 10507 10510 10512 10510 10510 10512 10514 10515 10517 10519 10521 10524 10526 10526 10528 10531 10533 10535 10534 10533 10534 10533 10533 10537 10539 10539 10539 10539 10541 10542 10542 10543 10545 10545 10547 10549 10550 10551 10553 10555 10557 10557 10555 10552 10552 10553 10556 10560 10565 10569 10571 10571 10571 10573 10574 10573 10573
10466 10465 10465 10465 10464 10465 10466 10467 10469 10470 10471 10472 10474 10475 10477 10480 10480 10477 10478 10481 10482 10484 10485 10486 10488 10489 10490 10493 10493 10495 10499 10501 10503 10506 10506 10505 10506 10508 10510 10511 10514 10516 10517 10520 10522 10524 10525 10527 10529 10528 10528 10530 10529 10528 10531 10534 10534 10533 10534 10536 10536 10536 10538 10539 10540 10542 10543 10544 10545 10548 10550 10550 10550 10550 10549 10547 10546 10549 10555 10560 10563 10565 10565 10565 10566 10568 10569 10568
10461 10460 10459 10459 10458 10460 10462 10462 10463 10465 10466 10467 10468 10469 10471 10473 10470 10469 10472 10475 10475 10478 10481 10481 10482 10482 10485 10488 10488 10490 10493 10494 10496 10499 10501 10501 10501 10503 10504 10506 10509 10510 10511 10515 10517 10519 10519 10521 10523 10523 10522 10524 10524 10524 10525 10527 10529 10529 10530 10531 10530 10530 10532 10533 10535 10537 10538 10539 10540 10541 10543 10543 10543 10544 10544 10543 10541 10544 10549 10554 10557 10559 10559 10559 10560 10561 10562 10561
10455 10454 10453 10453 10453 10455 10457 10457 10458 10459 10460 10461 10462 10464 10465 10463 10461 10462 10466 10468 10470 10473 10475 10476 10476 10476 10480 10482 10483 10485 10487 10488 10490 10492 10495 10497 10498 10498 10498 10500 10504 10505 10506 10510 10512 10513 10515 10516 10517 10517 10518 10518 10517 10518 10520 10521 10523 10524 10523 10523 10523 10526 10527 10528 10530 10532 10533 10533 10533 10534 10536 10536 10536 10537 10539 10538 10538 10539 10543 10547 10550 10552 10553 10553 10553 10553 10554 10555
10450 10448 10447 10447 10448 10450 10452 10452 10452 10453 10454 10456 10458 10458 10457 10454 10453 10456 10459 10461 10464 10467 10467 10468 10470 10471 10472 10475 10479 10480 10479 10481 10483 10485 10490 10493 10494 10494 10493 10494 10498 10499 10501 10505 10506 10508 10511 10510 10510 10512 10514 10512 10510 10513 10516 10516 10516 10517 10515 10515 10519 10522 10523 10523 10525 10526 10527 10528 10527 10527 10529 10529 10530 10531 10533 10534 10534 10534 10537 10540 10542 10544 10545 10545 10545 10545 10545 10547
10444 10442 10440 10440 10443 10445 10446 10446 10447 10447 10449 10451 10453 10451 10449 10448 10447 10449 10452 10453 10456 10458 10459 10461 10464 10466 10464 10468 10473 10472 10472 10474 10476 10478 10483 10486 10489 10490 10488 10487 10489 10491 10495 10499 10501 10505 10506 10503 10503 10506 10508 10508 10507 10509 10510 10509 10508 10508 10506 10509 10515 10517 10518 10518 10518 10520 10521 10521 10520 10520 10522 10524 10525 10525 10527 10528 10529 10529 10531 10534 10534 10535 10536 10537 10537 10536 10536 10539
10437 10435 10434 10435 10437 10438 10439 10441 10441 10441 10444 10446 10446 10444 10443 10441 10440 10442 10444 10445 10447 10450 10454 10456 10459 10460 10459 10461 10465 10464 10466 10469 10470 10473 10475 10478 10483 10485 10482 10481 10481 10484 10491 10494 10496 10500 10500 10496 10497 10502 10504 10504 10503 10502 10501 10501 10501 10500 10500 10505 10509 10511 10514 10514 10512 10513 10514 10514 10514 10514 10516 10520 10519 10519 10520 10521 10522 10524 10526 10527 10527 10527 10528 10529 10529 10529 10529 10531
10429 10428 10428 10430 10430 10430 10432 10435 10435 10437 10439 10440 10439 10436 10435 10434 10434 10436 10438 10438 10440 10445 10449 10451 10454 10456 10455 10456 10457 10457 10459 10462 10465 10468 10469 10471 10476 10476 10474 10474 10475 10479 10486 10488 10490 10495 10495 10492 10492 10497 10498 10497 10495 10493 10492 10493 10496 10496 10496 10499 10503 10506 10507 10507 10506 10506 10507 10509 10509 10508 10510 10513 10511 10511 10513 10514 10516 10519 10520 10520 10521 10520 10520 10521 10521 10521 10522 10524
10420 10421 10422 10423 10422 10423 10426 10429 10430 10431 10432 10432 10431 10429 10428 10428 10429 10431 10432 10432 10435 10438 10441 10444 10448 10450 10450 10450 10450 10450 10452 10455 10459 10461 10463 10466 10468 10468 10468 10467 10469 10475 10481 10482 10485 10490 10491 10488 10487 10489 10490 10489 10486 10486 10486 10488 10490 10492 10491 10490 10493 10499 10500 10498 10500 10501 10501 10503 10503 10502 10503 10504 10503 10504 10506 10508 10510 10513 10513 10514 10514 10514 10514 10514 10514 10514 10515 10517
10412 10413 10414 10415 10415 10416 10419 10422 10423 10424 10425 10424 10424 10424 10422 10422 10423 10425 10427 10427 10428 10431 10434 10437 10441 10443 10442 10443 10444 10444 10445 10447 10449 10452 10455 10459 10461 10462 10462 10461 10462 10468 10473 10477 10481 10484 10485 10483 10479 10479 10481 10480 10479 10480 10482 10483 10483 10485 10484 10482 10485 10492 10494 10492 10493 10496 10497 10496 10496 10496 10494 10493 10495 10497 10499 10502 10504 10506 10507 10507 10507 10508 10508 10508 10508 10507 10507 10509
10404 10405 10406 10407 10408 10410 10412 10414 10415 10417 10418 10417 10417 10418 10417 10417 10417 10418 10420 10422 10423 10425 10429 10431 10432 10434 10435 10437 10438 10439 10440 10441 10442 10445 10446 10450 10454 10456 10455 10455 10458 10462 10465 10470 10474 10477 10478 10476 10473 10472 10473 10474 10473 10473 10474 10476 10477 10477 10476 10477 10479 10483 10486 10486 10487 10490 10490 10488 10487 10487 10485 10484 10487 10490 10493 10495 10496 10498 10500 10499 10500 10501 10501 10502 10502 10501 10500 10501
10396 10396 10397 10399 10401 10403 10404 10405 10407 10410 10411 10410 10411 10412 10411 10412 10411 10411 10413 10416 10418 10420 10423 10424 10426 10428 10431 10433 10435 10436 10437 10437 10438 10439 10440 10443 10446 10447 10447 10449 10452 10456 10459 10461 10464 10468 10468 10468 10468 10467 10467 10467 10466 10463 10463 10467 10472 10471 10469 10471 10473 10473 10476 10478 10479 10480 10480 10478 10479 10478 10476 10477 10480 10482 10485 10487 10487 10489 10491 10491 10492 10493 10494 10495 10495 10494 10493 10494
10386 10388 10389 10391 10393 10394 10395 10395 10398 10402 10403 10403 10405 10406 10406 10407 10406 10404 10405 10409 10413 10416 10418 10419 10421 10424 10426 10429 10432 10433 10435 10434 10432 10433 10435 10437 10438 10438 10440 10442 10443 10446 10450 10452 10454 10457 10459 10460 10463 10462 10460 10459 10456 10453 10453 10457 10461 10461 10462 10464 10465 10464 10466 10469 10470 10471 10469 10468 10470 10470 10468 10469 10471 10473 10475 10477 10479 10481 10483 10484 10484 10485 10487 10488 10487 10487 10487 10487
10377 10378 10380 10382 10383 10384 10384 10386 10390 10393 10394 10396 10398 10399 10400 10400 10399 10397 10396 10400 10406 10412 10413 10414 10417 10420 10421 10424 10427 10427 10428 10428 10426 10426 10427 10429 10433 10433 10432 10433 10434 10435 10440 10444 10446 10448 10450 10451 10454 10454 10453 10451 10447 10444 10445 10447 10448 10450 10453 10455 10456 10456 10458 10460 10462 10461 10459 10459 10460 10460 10458 10459 10462 10464 10466 10469 10472 10473 10474 10476 10476 10477 10479 10479 10479 10479 10479 10480
10366 10367 10369 10371 10373 10374 10374 10378 10382 10384 10385 10387 10389 10390 10392 10393 10391 10390 10390 10393 10400 10407 10408 10409 10414 10417 10417 10420 10422 10420 10421 10422 10422 10421 10419 10420 10425 10429 10426 10425 10427 10428 10430 10434 10436 10438 10440 10442 10443 10443 10443 10441 10439 10437 10438 10439 10439 10440 10443 10445 10447 10449 10451 10453 10453 10451 10449 10450 10450 10449 10449 10450 10451 10454 10457 10461 10464 10465 10466 10467 10467 10469 10471 10471 10471 10471 10472 10473
10355 10356 10358 10361 10364 10364 10365 10369 10372 10373 10377 10379 10380 10382 10384 10385 10384 10383 10384 10388 10393 10399 10402 10404 10409 10412 10412 10414 10416 10415 10415 10415 10416 10415 10412 10412 10417 10423 10423 10421 10421 10422 10425 10427 10428 10430 10432 10432 10433 10433 10433 10433 10432 10432 10431 10432 10432 10431 10433 10435 10437 10439 10442 10443 10443 10442 10442 10442 10439 10438 10440 10440 10440 10443 10446 10450 10454 10456 10458 10459 10459 10460 10462 10462 10462 10463 10464 10465
10345 10346 10348 10351 10353 10353 10354 10358 10361 10364 10368 10370 10372 10374 10376 10378 10378 10378 10380 10384 10388 10392 10395 10398 10403 10407 10408 10408 10409 10410 10409 10409 10410 10408 10405 10404 10408 10414 10417 10416 10416 10418 10420 10421 10422 10423 10424 10423 10424 10425 10425 10426 10427 10426 10424 10425 10425 10425 10425 10427 10428 10430 10431 10433 10433 10433 10434 10434 10430 10429 10430 10430 10430 10434 10437 10439 10442 10445 10449 10451 10451 10452 10453 10453 10453 10455 10456 10457
10335 10336 10338 10340 10343 10343 10344 10349 10353 10356 10359 10360 10363 10367 10369 10371 10373 10374 10376 10380 10384 10385 10387 10391 10397 10401 10403 10402 10402 10403 10403 10402 10403 10402 10399 10397 10399 10405 10408 10410 10410 10411 10412 10414 10415 10416 10416 10415 10417 10419 10418 10418 10419 10419 10419 10419 10419 10419 10418 10419 10420 10421 10421 10422 10423 10425 10426 10426 10423 10421 10421 10420 10421 10425 10428 10430 10433 10435 10438 10441 10442 10443 10443 10444 10446 10447 10449 10449
10326 10327 10328 10332 10336 10337 10338 10342 10346 10348 10350 10353 10355 10359 10361 10364 10366 10368 10369 10372 10376 10378 10378 10382 10388 10392 10394 10394 10393 10394 10395 10394 10395 10395 10393 10391 10391 10394 10398 10401 10403 10403 10405 10407 10408 10409 10408 10408 10410 10411 10410 10410 10411 10411 10413 10414 10414 10413 10411 10410 10411 10412 10412 10413 10415 10417 10418 10418 10417 10416 10414 10412 10414 10417 10419 10421 10423 10426 10427 10429 10432 10433 10434 10435 10436 10439 10441 10441
10319 10320 10321 10325 10330 10331 10330 10332 10337 10339 10341 10344 10347 10350 10354 10356 10359 10361 10362 10363 10367 10369 10370 10373 10378 10382 10384 10384 10383 10385 10386 10385 10385 10384 10384 10383 10383 10384 10388 10392 10395 10397 10399 10402 10403 10404 10402 10402 10403 10403 10402 10402 10403 10404 10406 10408 10408 10406 10405 10404 10404 10404 10405 10406 10408 10410 10410 10410 10410 10409 10407 10406 10407 10410 10412 10412 10413 10415 10416 10418 10421 10424 10426 10426 10427 10429 10431 10432
10312 10313 10315 10318 10321 10322 10320 10322 10326 10328 10330 10333 10337 10341 10345 10347 10350 10352 10353 10355 10358 10361 10363 10365 10368 10372 10374 10374 10374 10376 10377 10377 10376 10376 10376 10377 10376 10376 10380 10385 10389 10391 10393 10396 10399 10399 10398 10396 10396 10396 10395 10394 10395 10398 10400 10401 10401 10400 10400 10400 10398 10396 10398 10400 10401 10402 10402 10401 10401 10400 10400 10399 10400 10403 10404 10406 10406 10406 10405 10406 10409 10412 10415 10417 10418 10419 10421 10422